Skip Page Navigation
NASA JPL Caltech
NASA Logo - Jet Propulsion Laboratory + View the NASA Portal
+ Center for Near-Earth Object Studies
JPL Home Earth Solar System Stars & Galaxies Technology
JPL Solar System Dynamics
BODIES ORBITS EPHEMERIDES TOOLS PHYSICAL DATA DISCOVERY FAQ SITE MAP
IMPORTANT: The SSD Announcement email list is now available. Major changes are coming in the near future, including possible hostname and/or URL changes. To be notified of such changes, subscribe to this email list.

Please visit this page for more details.


JPL Small-Body Database Browser
Search: [ help ]  
146675 (2001 UV214)
Classification: Main-belt Asteroid          SPK-ID: 2146675
Ephemeris | Orbit Diagram | Orbital Elements | Mission Design | Physical Parameters | Discovery Circumstances ]

[ show orbit diagram ]
Orbital Elements at Epoch 2458600.5 (2019-Apr-27.0) TDB
Reference: JPL 13 (heliocentric ecliptic J2000)
 Element Value Uncertainty (1-sigma)   Units 
e .1821609913170875 6.0462e-08  
a 2.601134876691731 1.9569e-08 au
q 2.127309569004115 1.5506e-07 au
i 4.561768075896179 6.2747e-06 deg
node 69.92491649931138 8.9101e-05 deg
peri 203.9844613620359 9.0812e-05 deg
M 166.9289824509674 1.9462e-05 deg
tp 2457889.987078387529
(2017-May-16.48707839)
8.0545e-05 TDB
period 1532.296237746624
4.20
1.7292e-05
4.734e-08
d
yr
n .2349415153099975 2.6513e-09 deg/d
Q 3.074960184379347 2.3133e-08 au
  Orbit Determination Parameters
   # obs. used (total)      260  
   data-arc span      6769 days (18.53 yr)  
   first obs. used      2000-05-28  
   last obs. used      2018-12-09  
   planetary ephem.      DE431  
   SB-pert. ephem.      SB431-N16  
   condition code      0  
   norm. resid. RMS      .66351  
   source      ORB  
   producer      Otto Matic  
   solution date      2019-Jul-13 11:07:26  

Additional Information
 Earth MOID = 1.11151 au 
 Jupiter MOID = 2.03967 au 
 T_jup = 3.386 
[ hide covariance matrix ]
Orbital Elements at Epoch 2456556.5 (2013-Sep-21.0) TDB
Reference: JPL 13 (heliocentric ecliptic J2000)
 Element Value Uncertainty (1-sigma)   Units 
e .183953259661796 6.0562e-08  
q 2.121426359370162 1.5557e-07 au
tp 2456358.536296866144
(2013-Mar-07.03629687)
7.7276e-05 TDB
node 70.014870648319 8.9114e-05 deg
peri 203.9090005457503 9.0784e-05 deg
i 4.563077239301898 6.2769e-06 deg
  Orbit Determination Parameters
   # obs. used (total)      260  
   data-arc span      6769 days (18.53 yr)  
   first obs. used      2000-05-28  
   last obs. used      2018-12-09  
   planetary ephem.      DE431  
   SB-pert. ephem.      SB431-N16  
   condition code      0  
   norm. resid. RMS      .66351  
   source      ORB  
   producer      Otto Matic  
   solution date      2019-Jul-13 11:07:26  

Additional Information
 Jupiter MOID = 2.03967 au 
 T_jup = 3.386 
Orbit Covariance (6×6)
  e q tp node peri i
e 3.667798326632151E-15 -9.374094070429514E-15 1.134524252064685E-12 3.053604163740919E-14 1.71073377308727E-13 -3.510945793393325E-15
q -9.374094070429514E-15 2.420224684390599E-14 -2.928834610491104E-12 -7.950847711908519E-14 -4.37149277248772E-13 9.486163329286059E-15
tp 1.134524252064685E-12 -2.928834610491104E-12 5.97165681461845E-9 2.006250223086925E-11 1.396160989571942E-9 -3.158112659523599E-12
node 3.053604163740919E-14 -7.950847711908519E-14 2.006250223086925E-11 7.941296086790379E-9 -7.911529834725147E-9 5.298471544605614E-11
peri 1.71073377308727E-13 -4.37149277248772E-13 1.396160989571942E-9 -7.911529834725147E-9 8.241767197800195E-9 -5.35105405856727E-11
i -3.510945793393325E-15 9.486163329286059E-15 -3.158112659523599E-12 5.298471544605614E-11 -5.35105405856727E-11 3.939954127352858E-11

Ephemeris | Orbit Diagram | Orbital Elements | Mission Design | Physical Parameters | Discovery Circumstances ]

Physical Parameter Table
Parameter Symbol Value Units Sigma Reference Notes
absolute magnitude H 16.3   n/a MPO432921  

146675 (2001 UV214)          Discovered 2001-Oct-23 by LINEAR at Socorro
Reference: 20070106/Numbers.arcLast Updated: 2007-01-09

Alternate Designations
 2001 UV214 = 2000 KQ27 
Ephemeris | Orbit Diagram | Orbital Elements | Mission Design | Physical Parameters | Discovery Circumstances ]
ABOUT SSD CREDITS/AWARDS PRIVACY/COPYRIGHT GLOSSARY LINKS
FirstGov 2020-Jan-20 15:08 UT
(server date/time)  
NASA Home Page
Site Manager:   Ryan S. Park
Webmaster  Alan B. Chamberlin